Date String (YYYY-MM-DD hh:mm:ss) UTC,Instrument flags,absolute air pressure of the measurement (hPa),sample flow rate (lpm),inlet stack bypass flow (lpm),air temperature of the measurement (°C),ambient temperature measured by the external sensor (°C),aerosol sample conditioner tube jacket temperature (°C),OPC LED temperature (°C),internal box temperature (°C),relative humidity of the measurement (%),span deviation,mass concentration of particles derived from Lorenz-Mie calculation of OPC scattering (μg/m³),mass concentration of particles derived from Lorenz-Mie calculation of OPC scattering (μg/m³),mass concentration of particles derived from Lorenz-Mie calculation of OPC scattering (μg/m³)
DateTimeUTC,F1_M11,P_M11,Q1_M11,Q2_M11,T1_M11,T2_M11,T3_M11,T4_M11,T5_M11,U1_M11,ZSPAN_M11,X0_M11,X2_M11,X1_M11
2023-07-25 07:00:00,SystemResetWarning,0833.8,4.99,000.00,029.1,027.4,000.0,037.5,030.7,31.3,0000.0,0013.28,0006.36,0005.51
2023-07-25 07:01:00,SystemResetWarning,0833.8,4.99,000.00,029.2,027.6,000.0,037.5,030.8,30.9,0000.0,0013.32,0006.39,0005.52
2023-07-25 07:02:00,SystemResetWarning,0833.8,5.00,000.00,029.2,027.8,000.0,037.6,030.8,30.7,0000.0,0013.51,0006.43,0005.53
2023-07-25 07:03:00,SystemResetWarning,0833.8,5.01,000.00,029.2,027.9,000.0,037.6,030.9,30.4,0000.0,0013.65,0006.43,0005.53
2023-07-25 07:04:00,SystemResetWarning,0833.8,5.01,000.00,029.3,027.9,000.0,037.6,030.9,30.1,0000.0,0013.61,0006.40,0005.55
2023-07-25 07:05:00,SystemResetWarning,0833.8,4.98,000.00,029.3,026.4,000.0,037.5,030.8,29.8,0000.0,0013.78,0006.41,0005.55
2023-07-25 07:06:00,SystemResetWarning,0833.8,5.01,000.00,029.2,025.4,000.0,037.4,030.5,29.9,0000.0,0013.61,0006.45,0005.57
2023-07-25 07:07:00,SystemResetWarning,0833.8,5.02,000.00,029.1,025.3,000.0,037.4,030.3,30.1,0000.0,0013.24,0006.44,0005.59
2023-07-25 07:08:00,SystemResetWarning,0833.8,5.00,000.00,029.0,025.6,000.0,037.4,030.3,30.2,0000.0,0013.21,0006.45,0005.60
2023-07-25 07:09:00,SystemResetWarning,0833.8,5.00,000.00,029.0,026.1,000.0,037.5,030.4,30.5,0000.0,0012.97,0006.45,0005.60
2023-07-25 07:10:00,SystemResetWarning,0833.8,5.00,000.00,029.0,026.4,000.0,037.5,030.5,30.4,0000.0,0012.89,0006.45,0005.60
2023-07-25 07:11:00,SystemResetWarning,0833.8,5.00,000.00,029.0,026.8,000.0,037.5,030.6,30.9,0000.0,0012.35,0006.42,0005.60
2023-07-25 07:12:00,SystemResetWarning,0833.8,5.00,000.00,029.1,027.1,000.0,037.5,030.6,30.6,0000.0,0012.79,0006.44,0005.61
2023-07-25 07:13:00,SystemResetWarning,0833.7,4.99,000.00,029.1,027.3,000.0,037.5,030.7,30.1,0000.0,0012.98,0006.44,0005.62
2023-07-25 07:14:00,SystemResetWarning,0833.7,4.99,000.00,029.1,027.6,000.0,037.5,030.7,30.0,0000.0,0013.01,0006.43,0005.62
2023-07-25 07:15:00,SystemResetWarning,0833.7,5.00,000.00,029.2,027.7,000.0,037.5,030.8,29.8,0000.0,0013.02,0006.43,0005.62
2023-07-25 07:16:00,SystemResetWarning,0833.7,5.00,000.00,029.2,027.9,000.0,037.6,030.9,29.6,0000.0,0012.98,0006.47,0005.63
2023-07-25 07:17:00,SystemResetWarning,0833.7,5.00,000.00,029.2,028.0,000.0,037.6,030.9,29.5,0000.0,0012.47,0006.47,0005.63
2023-07-25 07:18:00,SystemResetWarning,0833.7,5.00,000.00,029.3,027.9,000.0,037.6,030.9,29.2,0000.0,0012.42,0006.46,0005.63
2023-07-25 07:19:00,SystemResetWarning,0833.7,5.00,000.00,029.3,026.3,000.0,037.5,030.8,28.8,0000.0,0012.23,0006.42,0005.63
2023-07-25 07:20:00,SystemResetWarning,0833.7,5.00,000.00,029.2,025.4,000.0,037.4,030.6,29.1,0000.0,0011.60,0006.43,0005.62
2023-07-25 07:21:00,SystemResetWarning,0833.7,5.01,000.00,029.1,025.4,000.0,037.4,030.4,28.9,0000.0,0011.33,0006.44,0005.62
2023-07-25 07:22:00,SystemResetWarning,0833.7,5.01,000.00,029.0,025.8,000.0,037.4,030.3,28.6,0000.0,0011.43,0006.49,0005.62
2023-07-25 07:23:00,SystemResetWarning,0833.6,4.99,000.00,029.0,026.2,000.0,037.4,030.4,27.6,0000.0,0011.49,0006.49,0005.62
2023-07-25 07:24:00,SystemResetWarning,0833.7,5.00,000.00,029.0,026.5,000.0,037.5,030.5,27.5,0000.0,0011.34,0006.48,0005.62
2023-07-25 07:25:00,SystemResetWarning,0833.7,5.00,000.00,029.0,026.9,000.0,037.5,030.6,27.5,0000.0,0011.06,0006.48,0005.62
2023-07-25 07:26:00,SystemResetWarning,0833.6,5.00,000.00,029.1,027.2,000.0,037.5,030.7,28.2,0000.0,0011.17,0006.56,0005.62
2023-07-25 07:27:00,SystemResetWarning,0833.7,5.00,000.00,029.1,027.4,000.0,037.5,030.7,27.9,0000.0,0011.30,0006.59,0005.61
2023-07-25 07:28:00,SystemResetWarning,0833.7,5.00,000.00,029.1,027.6,000.0,037.5,030.8,28.2,0000.0,0011.64,0006.56,0005.62
2023-07-25 07:29:00,SystemResetWarning,0833.7,5.00,000.00,029.2,027.8,000.0,037.5,030.8,28.5,0000.0,0011.82,0006.55,0005.62
2023-07-25 07:30:00,SystemResetWarning,0833.7,5.00,000.00,029.2,027.9,000.0,037.6,030.9,28.6,0000.0,0012.70,0006.57,0005.60
2023-07-25 07:31:00,SystemResetWarning,0833.6,5.00,000.00,029.2,028.0,000.0,037.6,030.9,28.9,0000.0,0013.13,0006.54,0005.59
2023-07-25 07:32:00,SystemResetWarning,0833.7,4.98,000.00,029.2,026.8,000.0,037.5,030.8,28.9,0000.0,0013.10,0006.54,0005.61
2023-07-25 07:33:00,SystemResetWarning,0833.7,5.01,000.00,029.2,025.5,000.0,037.4,030.5,29.0,0000.0,0013.27,0006.53,0005.61
2023-07-25 07:34:00,SystemResetWarning,0833.6,5.02,000.00,029.1,025.3,000.0,037.4,030.3,29.1,0000.0,0013.29,0006.50,0005.59
2023-07-25 07:35:00,SystemResetWarning,0833.5,5.00,000.00,029.0,025.6,000.0,037.4,030.2,29.2,0000.0,0013.49,0006.52,0005.58
2023-07-25 07:36:00,SystemResetWarning,0833.6,5.00,000.00,029.0,026.0,000.0,037.4,030.3,29.5,0000.0,0013.91,0006.50,0005.57
2023-07-25 07:37:00,SystemResetWarning,0833.6,5.00,000.00,029.0,026.4,000.0,037.4,030.4,28.7,0000.0,0013.72,0006.45,0005.57
2023-07-25 07:38:00,SystemResetWarning,0833.6,5.01,000.00,029.0,026.8,000.0,037.5,030.5,28.7,0000.0,0013.43,0006.37,0005.55
2023-07-25 07:39:00,SystemResetWarning,0833.5,5.00,000.00,029.0,027.1,000.0,037.5,030.6,28.6,0000.0,0012.83,0006.34,0005.54
2023-07-25 07:40:00,SystemResetWarning,0833.5,4.99,000.00,029.0,027.3,000.0,037.5,030.7,28.2,0000.0,0012.73,0006.33,0005.52
2023-07-25 07:41:00,SystemResetWarning,0833.5,5.00,000.00,029.1,027.5,000.0,037.5,030.7,27.7,0000.0,0012.29,0006.31,0005.52
2023-07-25 07:42:00,SystemResetWarning,0833.4,5.00,000.00,029.1,027.7,000.0,037.5,030.8,27.6,0000.0,0011.99,0006.31,0005.50
2023-07-25 07:43:00,SystemResetWarning,0833.4,5.00,000.00,029.1,027.9,000.0,037.5,030.8,27.4,0000.0,0011.98,0006.24,0005.47
2023-07-25 07:44:00,SystemResetWarning,0833.4,5.01,000.00,029.2,028.0,000.0,037.6,030.9,27.7,0000.0,0011.73,0006.21,0005.44
2023-07-25 07:45:00,SystemResetWarning,0833.5,4.99,000.00,029.2,028.1,000.0,037.6,030.9,27.2,0000.0,0011.71,0006.20,0005.44
2023-07-25 07:46:00,SystemResetWarning,0833.6,4.99,000.00,029.3,027.6,000.0,037.5,030.9,27.6,0000.0,0011.25,0006.18,0005.42
2023-07-25 07:47:00,SystemResetWarning,0833.6,5.00,000.00,029.2,026.0,000.0,037.4,030.7,27.5,0000.0,0010.97,0006.15,0005.41
2023-07-25 07:48:00,SystemResetWarning,0833.6,5.01,000.00,029.2,025.4,000.0,037.4,030.5,28.9,0000.0,0011.59,0006.14,0005.39
2023-07-25 07:49:00,SystemResetWarning,0833.6,5.01,000.00,029.1,025.6,000.0,037.4,030.3,28.6,0000.0,0011.58,0006.12,0005.39
2023-07-25 07:50:00,SystemResetWarning,0833.6,5.00,000.00,029.0,025.9,000.0,037.4,030.4,27.8,0000.0,0011.65,0006.14,0005.40
2023-07-25 07:51:00,SystemResetWarning,0833.7,5.00,000.00,029.0,026.3,000.0,037.4,030.5,27.4,0000.0,0012.38,0006.15,0005.40
2023-07-25 07:52:00,SystemResetWarning,0833.7,5.00,000.00,029.0,026.7,000.0,037.5,030.5,27.6,0000.0,0012.39,0006.16,0005.39
2023-07-25 07:53:00,SystemResetWarning,0833.7,5.00,000.00,029.0,027.0,000.0,037.5,030.6,27.7,0000.0,0012.16,0006.13,0005.38
2023-07-25 07:54:00,SystemResetWarning,0833.6,5.00,000.00,029.1,027.2,000.0,037.5,030.7,28.0,0000.0,0012.05,0006.12,0005.39
2023-07-25 07:55:00,SystemResetWarning,0833.7,4.99,000.00,029.1,027.5,000.0,037.5,030.7,28.4,0000.0,0012.08,0006.12,0005.39
2023-07-25 07:56:00,SystemResetWarning,0833.7,5.00,000.00,029.1,027.7,000.0,037.5,030.8,28.3,0000.0,0011.96,0006.12,0005.39
2023-07-25 07:57:00,SystemResetWarning,0833.7,5.00,000.00,029.2,027.8,000.0,037.5,030.8,28.2,0000.0,0011.87,0006.16,0005.41
2023-07-25 07:58:00,SystemResetWarning,0833.7,5.01,000.00,029.2,028.0,000.0,037.6,030.9,27.9,0000.0,0011.91,0006.21,0005.42
2023-07-25 07:59:00,SystemResetWarning,0833.6,5.01,000.00,029.2,028.1,000.0,037.6,030.9,27.4,0000.0,0011.41,0006.23,0005.43
